{"data":{"norad_id":64707,"epoch":"2026-09-20T11:53:00.961728Z","epoch_age_seconds":128030,"freshness":"FRESH","line1":"1 64707U 25142M   26263.49515002  .00009382  00000+0  33030-3 0  9996","line2":"2 64707  70.0009 180.7763 0003296 268.6677  91.4121 15.29591372 68899","mean_motion":15.29591372,"eccentricity":0.0003296,"inclination_deg":70.0009,"raan_deg":180.7763,"arg_perigee_deg":268.6677,"mean_anomaly_deg":91.4121,"bstar":0.0003303,"rev_number":6889,"period_min":94.142790444558,"perigee_km":474.77346146186,"apogee_km":479.29238947672,"semimajor_km":6855.1699254693,"source":"CELESTRAK","updated_at":"2026-09-21T09:00:35.404964Z"}}